Location: New Frontier Mobile Home Park
(32.8448°N, 116.9675°W)
Time: 23:08:21
(UTC+00:00)

Mugunghwa Rocket - Pass Details

Date: 14 July 2020
Orbit: 936 x 1372 km, 26.7° (Epoch: 05 August)

Event Time Altitude Azimuth Distance (km) Brightness Sun altitude
Rises 05:07:36 0° 250° (WSW) 3,602 7.3 -22.6°
Reaches altitude 10° 05:10:14 10° 244° (WSW) 2,685 6.5 -23.0°
Maximum altitude 05:16:24 48° 172° (S) 1,298 4.2 -23.8°
Enters shadow 05:16:45 47° 163° (SSE) 1,308 4.2 -23.9°
